When you browse on this site, cookies collect data to enhance your experience and personalize the content and advertising you see.
Visit our Privacy Policy to learn more. By continuing to use the site, you agree to this use of cookies and data.

Hourly Weather Lezhe

Today, 19 September, Saturday

Time Temperature Precipitation Wind Pressure Humidity
00:00 +21°C° 0 mm 5 mps 739 mmHg 50%
01:00 +20°C° 0 mm 6 mps 739 mmHg 50%
02:00 +20°C° 0 mm 5 mps 739 mmHg 50%
03:00 +20°C° 0 mm 5 mps 739 mmHg 49%
04:00 +20°C° 0 mm 5 mps 739 mmHg 49%
05:00 +20°C° 0 mm 5 mps 739 mmHg 48%
06:00 +20°C° 0 mm 4 mps 739 mmHg 48%
07:00 +20°C° 0 mm 5 mps 739 mmHg 48%
08:00 +22°C° 0 mm 5 mps 739 mmHg 44%
09:00 +25°C° 0 mm 4 mps 739 mmHg 40%
10:00 +27°C° 0 mm 4 mps 739 mmHg 36%
11:00 +28°C° 0 mm 4 mps 739 mmHg 34%
12:00 +30°C° 0 mm 3 mps 739 mmHg 32%
13:00 +31°C° 0 mm 3 mps 739 mmHg 30%
14:00 +31°C° 0 mm 3 mps 738 mmHg 31%
15:00 +30°C° 0 mm 3 mps 738 mmHg 32%
16:00 +30°C° 0 mm 4 mps 738 mmHg 34%
17:00 +28°C° 0 mm 3 mps 738 mmHg 39%
18:00 +26°C° 0 mm 3 mps 738 mmHg 44%
19:00 +24°C° 0 mm 2 mps 738 mmHg 49%
20:00 +23°C° 0 mm 2 mps 738 mmHg 50%
21:00 +23°C° 0 mm 2 mps 738 mmHg 52%
22:00 +21°C° 0 mm 2 mps 738 mmHg 53%
23:00 +21°C° 0 mm 2 mps 738 mmHg 53%

Tomorrow, 20 September, Sunday

Time Temperature Precipitation Wind Pressure Humidity
00:00 +21°C° 0 mm 2 mps 738 mmHg 53%
01:00 +20°C° 0 mm 2 mps 738 mmHg 54%
02:00 +20°C° 0 mm 2 mps 738 mmHg 55%
03:00 +20°C° 0 mm 2 mps 738 mmHg 55%
04:00 +19°C° 0 mm 2 mps 738 mmHg 56%
05:00 +20°C° 0 mm 2 mps 738 mmHg 54%
06:00 +21°C° 0 mm 2 mps 738 mmHg 52%
07:00 +23°C° 0 mm 2 mps 738 mmHg 50%
08:00 +25°C° 0 mm 1 mps 738 mmHg 44%
09:00 +27°C° 0 mm 1 mps 738 mmHg 39%
10:00 +30°C° 0 mm 1 mps 738 mmHg 33%
11:00 +30°C° 0 mm 2 mps 737 mmHg 32%
12:00 +31°C° 0 mm 3 mps 737 mmHg 30%
13:00 +31°C° 0 mm 3 mps 737 mmHg 29%
14:00 +31°C° 0 mm 3 mps 736 mmHg 31%
15:00 +30°C° 0 mm 3 mps 736 mmHg 34%
16:00 +29°C° 0 mm 2 mps 736 mmHg 37%
17:00 +27°C° 0 mm 2 mps 736 mmHg 45%
18:00 +24°C° 0 mm 1 mps 737 mmHg 54%
19:00 +22°C° 0 mm 1 mps 737 mmHg 62%
20:00 +21°C° 0 mm 1 mps 737 mmHg 60%
21:00 +21°C° 0 mm 1 mps 737 mmHg 57%
22:00 +21°C° 0 mm 1 mps 738 mmHg 54%
23:00 +20°C° 0 mm 1 mps 738 mmHg 54%

Day after tomorrow, 21 September, Monday

Time Temperature Precipitation Wind Pressure Humidity
00:00 +20°C° 0 mm 1 mps 738 mmHg 54%
01:00 +20°C° 0 mm 1 mps 738 mmHg 54%
02:00 +19°C° 0 mm 1 mps 738 mmHg 54%
03:00 +18°C° 0 mm 2 mps 738 mmHg 55%
04:00 +18°C° 0 mm 2 mps 738 mmHg 55%
05:00 +19°C° 0 mm 2 mps 738 mmHg 52%
06:00 +20°C° 0 mm 2 mps 738 mmHg 48%
07:00 +22°C° 0 mm 1 mps 738 mmHg 45%
08:00 +25°C° 0 mm 1 mps 738 mmHg 39%
09:00 +27°C° 0 mm 1 mps 738 mmHg 34%
10:00 +30°C° 0 mm 1 mps 738 mmHg 29%
11:00 +30°C° 0 mm 2 mps 738 mmHg 30%
12:00 +30°C° 0 mm 2 mps 738 mmHg 31%
13:00 +31°C° 0 mm 3 mps 738 mmHg 32%
14:00 +30°C° 0 mm 3 mps 737 mmHg 36%
15:00 +29°C° 0 mm 2 mps 737 mmHg 40%
16:00 +28°C° 0 mm 2 mps 737 mmHg 44%
17:00 +26°C° 0 mm 1 mps 737 mmHg 55%
18:00 +23°C° 0 mm 1 mps 737 mmHg 67%
19:00 +19°C° 0 mm 0 mps 737 mmHg 78%
20:00 +21°C° 0 mm 1 mps 738 mmHg 79%
21:00 +20°C° 0 mm 1 mps 738 mmHg 80%
22:00 +20°C° 0 mm 1 mps 738 mmHg 80%
23:00 +20°C° 0 mm 1 mps 738 mmHg 81%

22 September, Tuesday

Time Temperature Precipitation Wind Pressure Humidity
00:00 +20°C° 0 mm 1 mps 738 mmHg 81%
01:00 +19°C° 0 mm 1 mps 738 mmHg 82%
02:00 +19°C° 0 mm 1 mps 738 mmHg 80%
03:00 +19°C° 0 mm 1 mps 738 mmHg 79%
04:00 +18°C° 0 mm 2 mps 737 mmHg 78%
05:00 +19°C° 0 mm 2 mps 738 mmHg 72%
06:00 +21°C° 0 mm 1 mps 738 mmHg 66%
07:00 +23°C° 0 mm 1 mps 738 mmHg 60%
08:00 +25°C° 0 mm 1 mps 738 mmHg 54%
09:00 +27°C° 0 mm 1 mps 738 mmHg 47%
10:00 +29°C° 0 mm 2 mps 738 mmHg 41%
11:00 +29°C° 0 mm 2 mps 738 mmHg 40%
12:00 +30°C° 0 mm 3 mps 738 mmHg 40%
13:00 +30°C° 0 mm 4 mps 737 mmHg 39%
14:00 +29°C° 0.1 mm 3 mps 737 mmHg 44%
15:00 +28°C° 0.1 mm 3 mps 737 mmHg 49%
16:00 +27°C° 0.1 mm 2 mps 736 mmHg 54%
17:00 +25°C° 0.5 mm 2 mps 737 mmHg 64%
18:00 +23°C° 0.5 mm 2 mps 737 mmHg 74%
19:00 +21°C° 0.5 mm 1 mps 737 mmHg 85%
20:00 +21°C° 0.1 mm 1 mps 737 mmHg 84%
21:00 +20°C° 0.1 mm 1 mps 737 mmHg 84%
22:00 +19°C° 0.1 mm 2 mps 737 mmHg 84%
23:00 +19°C° 0 mm 2 mps 737 mmHg 83%

23 September, Wednesday

Time Temperature Precipitation Wind Pressure Humidity
00:00 +19°C° 0 mm 2 mps 737 mmHg 82%
01:00 +18°C° 0 mm 2 mps 737 mmHg 81%
02:00 +18°C° 0 mm 2 mps 737 mmHg 79%
03:00 +18°C° 0 mm 2 mps 737 mmHg 78%
04:00 +18°C° 0 mm 2 mps 736 mmHg 77%
05:00 +19°C° 0 mm 2 mps 737 mmHg 72%
06:00 +20°C° 0 mm 2 mps 737 mmHg 68%
07:00 +21°C° 0 mm 2 mps 737 mmHg 64%
08:00 +24°C° 0 mm 2 mps 737 mmHg 56%
09:00 +27°C° 0 mm 1 mps 736 mmHg 48%
10:00 +29°C° 0 mm 1 mps 736 mmHg 40%
11:00 +29°C° 0.4 mm 2 mps 736 mmHg 41%
12:00 +29°C° 0.4 mm 3 mps 736 mmHg 42%
13:00 +28°C° 0.4 mm 3 mps 735 mmHg 43%
14:00 +27°C° 1 mm 3 mps 735 mmHg 50%
15:00 +26°C° 1 mm 2 mps 735 mmHg 57%
16:00 +25°C° 1 mm 1 mps 734 mmHg 64%
17:00 +24°C° 2 mm 2 mps 734 mmHg 71%
18:00 +21°C° 2 mm 2 mps 735 mmHg 78%
19:00 +20°C° 2 mm 3 mps 735 mmHg 85%
20:00 +20°C° 1.8 mm 3 mps 735 mmHg 86%
21:00 +20°C° 1.8 mm 2 mps 735 mmHg 87%
22:00 +19°C° 1.8 mm 2 mps 735 mmHg 87%
23:00 +19°C° 2.1 mm 2 mps 735 mmHg 88%

24 September, Thursday

Time Temperature Precipitation Wind Pressure Humidity
00:00 +19°C° 2.1 mm 2 mps 735 mmHg 89%
01:00 +20°C° 2.1 mm 1 mps 735 mmHg 89%
02:00 +20°C° 1.5 mm 1 mps 735 mmHg 89%
03:00 +19°C° 1.5 mm 1 mps 734 mmHg 89%
04:00 +18°C° 1.5 mm 2 mps 734 mmHg 90%
05:00 +19°C° 1.7 mm 2 mps 735 mmHg 89%
06:00 +19°C° 1.7 mm 2 mps 735 mmHg 87%
07:00 +20°C° 1.7 mm 2 mps 735 mmHg 86%
08:00 +21°C° 1.1 mm 2 mps 735 mmHg 80%
09:00 +23°C° 1.1 mm 2 mps 735 mmHg 74%
10:00 +25°C° 1.1 mm 3 mps 735 mmHg 68%
11:00 +25°C° 0.4 mm 3 mps 735 mmHg 64%
12:00 +26°C° 0.4 mm 2 mps 735 mmHg 61%
13:00 +26°C° 0.4 mm 2 mps 735 mmHg 58%
14:00 +26°C° 0.1 mm 2 mps 735 mmHg 59%
15:00 +26°C° 0.1 mm 2 mps 735 mmHg 59%
16:00 +25°C° 0.1 mm 2 mps 734 mmHg 60%
17:00 +24°C° 0 mm 2 mps 735 mmHg 65%
18:00 +22°C° 0 mm 1 mps 735 mmHg 69%
19:00 +21°C° 0 mm 1 mps 735 mmHg 74%
20:00 +21°C° 0 mm 1 mps 735 mmHg 73%
21:00 +21°C° 0 mm 1 mps 735 mmHg 72%
22:00 +20°C° 0 mm 2 mps 736 mmHg 71%
23:00 +19°C° 0 mm 2 mps 735 mmHg 71%
Show more